OBJECT M, 44890

Orbit data source: Space-Track

You're viewing an Uncataloged Satellite

Recently launched and/or uncataloged satellites may have evolving metadata. Metadata may include but not limited to: Owner, Maufacturer, Bus, Motor, and Mission.

OBJECT M, 44890 is a satellite in SSO that was launched on Fri, 20 Dec 2019 UTC launched from the Taiyaun Space Center, China (TSC). Unknown objects in Earth's orbit typically refer to objects detected orbiting the Earth but have not yet been identified or cataloged. These objects could be anything from previously untracked satellites, spent rocket stages, debris from satellite collisions, or even natural meteoroids temporarily captured by Earth's gravity.

Loading next visibility...
Identifier
44890, 2019-093M
Orbit
SSO
Country
Flag of TBDTBD
Related business
Manufacturer
SAST
Mission
Spacecraft
Bus & Motor
Unknown
Mass
Unknown
Launch date (UTC)
2019-12-20 (6 years ago)
Launch vehicle
Unknown
Launch site
Taiyaun Space Center, China (TSC)
Object type
Unknown
Shape & HBR
Unknown shape, 0.1 m
Radar Cross Section
Small (<0.1 m²)

Expand to show TLE details & history
Last TLE update: 9 hours ago

TLE from 9 hours ago
0 OBJECT M
1 44890U 19093M   25311.22810618  .00019050  00000-0  97359-3 0  9998
2 44890  97.7691  46.0620 0024448   6.1594 353.9934 15.16457975320541
Epoch: 2025-11-07T05:28Z
TLE epoch observation values (Epoch: 2025-11-07T05:28:28.373Z)
Latitude
-0.00005°
Longitude
-82.7313°
Altitude
502.864 km
Speed
7.622 km/s
True Right ascension
03h 04m 14s
True Declination
0° 00' 00"
Sunlit
Object was in full shadow at epoch
Visualization orbit readout
Latitude
Unknown
Longitude
Unknown
Altitude
Unknown
Speed
Unknown
Apparent Right ascension
Unknown
Apparent Declination
Unknown
Sunlit
N/A
Visualization observer readout
Local Sidereal Time
10:08:00
Azimuth
Unknown
Elevation
Unknown
Doppler factor
Unknown
Orbital elements
Apogee altitude
530.391 km
Perigee altitude
496.693 km
Semi-major axis
6,891.679 km
Eccentricity
0.00244
Inclination
97.7691°
RAAN
46.062°
Arg. of periapsis
6.1594°
True anomaly
353.96399°
Mean anomaly
353.9934°
Eccentric anomaly
353.97871°
Mean motion
3.79364 °/min
Orbital period
94.9 mins
BSTAR
0.00097359
Loading maneuver chart data...
Computing Atmospheric mass density...
Loading historical data...
Loading historical data...
Loading historical data...
Loading historical data...
Loading historical data...
Loading historical data...
Loading historical data...

Documentation

Showing up to 5 results
|